Change the Weather History Date:

Wednesday, November 13, 2013

  Actual Average (EGFF) Record (EGFF)
Temperature  
Mean Temperature 41 °F -  
Max Temperature 53 °F 50 °F 59 °F (2014)
Min Temperature 29 °F 40 °F 32 °F (2001)
Degree Days  
Heating Degree Days 24    
Moisture  
Dew Point 39 °F    
Average Humidity 87    
Maximum Humidity 100    
Minimum Humidity 61    
Precipitation  
Precipitation 0.01 in - - ()
Sea Level Pressure  
Sea Level Pressure 30.44 in    
Wind  
Wind Speed 10 mph ()    
Max Wind Speed 36 mph    
Max Gust Speed 43 mph    
Visibility 7.1 miles    
Events Rain    
Averages and records for this station are not official NWS values.
T = Trace of Precipitation, MM = Missing Value Source: Averaged Metar Reports

Daily Weather History Graph

Daily Weather History Graph

Search for Another Location

Airport or City:

Trip Planner

Search our weather history database for the weather conditions in past years. The results will help you decide how hot, cold, wet, or windy it might be!

Date:

Astronomy

Nov. 13, 2013 Rise Set
Actual Time 7:32 AM GMT 4:29 PM GMT
Civil Twilight 6:56 AM GMT 5:06 PM GMT
Nautical Twilight 6:15 AM GMT 5:47 PM GMT
Astronomical Twilight 5:35 AM GMT 6:26 PM GMT
Moon 2:35 PM GMT (11/13) 2:42 AM GMT (11/13)
Length of Visible Light 10h 10m
Length of Day
8h 57m
Waxing Gibbous, 83% of the Moon is Illuminated
Nov 13
Waxing Gibbous
Nov 17
Full
Nov 25
Last Quarter
Dec 3
New
Dec 9
First Quarter

Hourly Weather History & Observations

Time (GMT) Temp. Windchill Dew Point Humidity Pressure Visibility Wind Dir Wind Speed Gust Speed Precip Events Conditions
12:00 AM 32 °F - 32 °F 99% 30.59 in 7 mi ENE 3.5 mph - -  
12:50 AM 32.0 °F - 32.0 °F 100% 30.57 in 6.2 mi SSE 2.3 mph - N/A   Unknown
1:50 AM 32.0 °F - 32.0 °F 100% 30.57 in 6.2 mi East 2.3 mph - N/A   Unknown
2:50 AM 32.0 °F 27.5 °F 30.2 °F 93% 30.54 in 6.2 mi East 4.6 mph - N/A   Unknown
3:00 AM 31 °F - 31 °F 100% 30.56 in 8 mi East 4.6 mph - -  
3:50 AM 30.2 °F 26.7 °F 30.2 °F 100% 30.54 in 6.2 mi NNE 3.5 mph - N/A   Unknown
4:50 AM 30.2 °F 25.4 °F 30.2 °F 100% 30.54 in 6.2 mi East 4.6 mph - N/A   Unknown
5:50 AM 30.2 °F 24.3 °F 28.4 °F 93% 30.54 in 6.2 mi ENE 5.8 mph - N/A   Unknown
6:00 AM 29 °F - 29 °F 100% 30.56 in 11 mi ENE 5.8 mph - -  
6:50 AM 30.2 °F 26.7 °F 30.2 °F 100% 30.54 in 6.2 mi East 3.5 mph - N/A   Unknown
7:50 AM 30.2 °F 25.4 °F 30.2 °F 100% 30.57 in 6.2 mi NE 4.6 mph - N/A   Unknown
8:50 AM 33.8 °F - 33.8 °F 100% 30.54 in 6.2 mi East 2.3 mph - N/A   Mostly Cloudy
9:00 AM 34 °F - 34 °F 100% 30.56 in 12 mi East 2.3 mph - -   Mostly Cloudy
9:50 AM 37.4 °F - 35.6 °F 93% 30.54 in 6.2 mi East 2.3 mph - N/A   Mostly Cloudy
10:50 AM 42.8 °F 40.1 °F 42.8 °F 100% 30.51 in 6.2 mi NE 4.6 mph - N/A   Mostly Cloudy
11:50 AM 51.8 °F - 41.0 °F 67% 30.48 in 6.2 mi SSW 20.7 mph - N/A   Mostly Cloudy
12:00 PM 51 °F - 42 °F 61% 30.51 in 14 mi SSW 20.7 mph - -   Mostly Cloudy
12:50 PM 51.8 °F - 42.8 °F 71% 30.48 in 6.2 mi SW 23.0 mph - N/A   Mostly Cloudy
1:50 PM 51.8 °F - 41.0 °F 67% 30.42 in 6.2 mi SW 25.3 mph - N/A   Mostly Cloudy
2:50 PM 51.8 °F - 42.8 °F 71% 30.42 in 6.2 mi SW 25.3 mph - N/A   Overcast
3:00 PM 52 °F - 43 °F 61% 30.42 in 11 mi SW 25.3 mph - -   Mostly Cloudy
3:50 PM 50.0 °F - 44.6 °F 82% 30.39 in 6.2 mi WSW 31.1 mph 42.6 mph N/A Rain Light Rain
4:50 PM 51.8 °F - 42.8 °F 71% 30.33 in 6.2 mi WSW 27.6 mph - N/A   Mostly Cloudy
5:50 PM 51.8 °F - 44.6 °F 76% 30.30 in 6.2 mi SW 29.9 mph - N/A Rain Light Rain
6:00 PM 52 °F - 44 °F 65% 30.33 in 11 mi SW 29.9 mph - -   Overcast
6:50 PM 51.8 °F - 46.4 °F 82% 30.30 in 6.2 mi SW 33.4 mph - N/A   Mostly Cloudy
7:50 PM 51.8 °F - 48.2 °F 88% 30.24 in 3.7 mi SW 35.7 mph - N/A   Mostly Cloudy
8:50 PM 53.6 °F - 50.0 °F 88% 30.21 in 6.2 mi WSW 31.1 mph - N/A   Mostly Cloudy
9:00 PM 53 °F - 50 °F 87% 30.23 in 7 mi WSW 31.1 mph - -   Scattered Clouds
9:50 PM 50.0 °F - 48.2 °F 94% 30.21 in 6.2 mi WNW 24.2 mph - N/A   Mostly Cloudy
10:50 PM 50.0 °F - 46.4 °F 87% 30.21 in 6.2 mi West 19.6 mph - N/A   Scattered Clouds
11:50 PM 51.8 °F - 46.4 °F 82% 30.21 in 6.2 mi West 21.9 mph - N/A   Mostly Cloudy